Stations météo

réclame
Mon MeteoGroup
Millau, France (7558): Température de l'air & dewpoint: 14.07.2019 14:00:00 - 20.07.2019 14:00:00 (CEST)Millau, France (7558): Température de l'air 5cm: 14.07.2019 14:00:00 - 20.07.2019 14:00:00 (CEST)Millau, France (7558): Température de l'air -20cm & Température de l'air -100cm: 14.07.2019 14:00:00 - 20.07.2019 14:00:00 (CEST)Millau, France (7558): Vitesse du vent & gusts: 14.07.2019 14:00:00 - 20.07.2019 14:00:00 (CEST)Millau, France (7558): Direction du vent: 14.07.2019 14:00:00 - 20.07.2019 14:00:00 (CEST)Millau, France (7558): reduced air pressure: 14.07.2019 14:00:00 - 20.07.2019 14:00:00 (CEST)Millau, France (7558): visibility: 14.07.2019 14:00:00 - 20.07.2019 14:00:00 (CEST)Millau, France (7558): Ensoleillement: 14.07.2019 14:00:00 - 20.07.2019 14:00:00 (CEST)Millau, France (7558): Quantités de précipitations: 14.07.2019 14:00:00 - 20.07.2019 14:00:00 (CEST)
Date & Time tt [°C] td [°C] tt 5cm [°C] tt -20cm [°C] tt -100cm [°C] ff [km/h] ff [knt] fx [km/h] fx [knt] dd ppp [hPa] vv [km] sd [min] rr [mm]
20.07.2019 14:00:00 - - - - - - - - - - - - - -
20.07.2019 13:00:00 23,6 15,4 26,6 23,6 21,5 25 14 41 22 SSE 1015,7 20 60 0,0
20.07.2019 12:00:00 21,7 15,8 22,4 23,7 21,6 26 14 37 20 SSE 1016,3 20 50 0,0
20.07.2019 11:00:00 19,1 17,2 18,6 23,8 21,6 6 3 31 17 ENE 1016,7 19 5 0,2
20.07.2019 10:00:00 18,1 16,8 15,5 23,9 21,5 17 9 40 22 SE 1016,1 18 3 0,8
20.07.2019 09:00:00 16,5 15,4 16,1 24,0 21,5 15 8 22 12 ESE 1018,2 1,5 0 2,4
20.07.2019 08:00:00 17,9 15,0 18,1 24,1 21,5 9 5 29 16 SE 1015,6 20 3 0,0
20.07.2019 07:00:00 17,8 14,9 16,7 24,2 21,5 23 12 36 20 SSE 1015,1 20 13 0,0
20.07.2019 06:00:00 17,9 13,8 16,9 24,2 21,5 12 7 22 12 ESE 1014,7 20 0 0,0
20.07.2019 05:00:00 17,8 14,7 17,1 24,4 21,5 11 6 22 12 ESE 1014,7 20 0 0,0
20.07.2019 04:00:00 17,8 14,5 16,9 24,5 21,5 10 6 22 12 ESE 1014,8 20 0 0,0
20.07.2019 03:00:00 18,5 13,1 17,5 24,5 21,5 12 7 23 13 SE 1014,7 20 0 0,0
20.07.2019 02:00:00 19,0 10,5 17,9 24,6 21,5 16 9 21 12 ESE 1014,4 20 0 0,0
20.07.2019 01:00:00 19,5 10,5 17,9 24,6 21,5 7 4 14 7 E 1014,5 20 0 0,0
20.07.2019 00:00:00 20,1 10,8 19,0 24,6 21,5 9 5 14 7 ESE 1014,4 20 0 0,0
19.07.2019 23:00:00 21,6 10,4 20,7 24,6 21,5 12 7 27 14 SE 1014,1 20 0 0,0
19.07.2019 22:00:00 22,3 11,7 21,5 24,5 21,5 18 10 29 16 SE 1013,4 20 1 0,0
19.07.2019 21:00:00 24,4 11,7 24,4 24,4 21,5 14 8 27 15 SSE 1012,4 20 60 0,0
19.07.2019 20:00:00 28,6 8,3 31,2 24,2 21,5 10 6 18 10 W 1010,9 20 60 0,0
19.07.2019 19:00:00 29,4 7,3 33,9 24,0 21,5 6 4 21 11 W 1011,1 20 60 0,0
19.07.2019 18:00:00 28,6 8,3 34,5 23,8 21,4 9 5 26 14 SSW 1011,8 20 60 0,0
19.07.2019 17:00:00 29,0 6,4 34,6 23,6 21,4 13 7 29 15 W 1012,1 20 60 0,0
19.07.2019 16:00:00 28,0 7,8 35,3 23,4 21,5 13 7 26 14 SSW 1012,5 20 60 0,0
19.07.2019 15:00:00 27,3 8,2 33,6 23,3 21,5 4 2 20 11 NW 1013,1 20 60 0,0
19.07.2019 14:00:00 26,3 10,4 - - - 9 5 22 12 SW 1013,8 20 - -
19.07.2019 13:00:00 24,4 8,8 32,8 23,2 21,5 8 5 19 11 NW 1014,9 20 60 0,0
19.07.2019 12:00:00 23,3 9,7 29,4 23,2 21,4 9 5 17 9 NNW 1015,4 20 60 0,0
19.07.2019 11:00:00 21,0 10,8 26,8 23,3 21,4 8 5 16 9 S 1016,1 20 60 0,0
19.07.2019 10:00:00 20,3 11,0 25,2 23,3 21,4 6 3 14 7 NNW 1016,4 20 60 0,0
19.07.2019 09:00:00 17,7 10,6 18,9 23,5 21,5 8 4 11 6 NNE 1017,3 20 60 0,0
19.07.2019 08:00:00 15,7 10,0 15,9 23,6 21,5 3 2 8 5 ENE 1017,6 20 60 0,0
19.07.2019 07:00:00 14,3 9,5 11,7 23,7 21,4 6 3 10 5 N 1017,8 20 14 0,0
19.07.2019 06:00:00 14,1 9,5 11,5 23,8 21,4 3 2 8 4 NE 1017,9 20 0 0,0
19.07.2019 05:00:00 14,6 9,4 12,7 23,9 21,4 4 2 9 5 NE 1017,6 20 0 0,0
19.07.2019 04:00:00 14,7 9,7 12,6 24,0 21,4 5 3 13 7 N 1017,6 20 0 0,0
19.07.2019 03:00:00 15,1 9,7 14,2 24,1 21,4 13 7 19 10 N 1017,8 20 0 0,0
19.07.2019 02:00:00 15,1 9,5 14,2 24,1 21,4 13 7 21 11 N 1017,9 20 0 0,0
19.07.2019 01:00:00 15,7 9,4 14,2 24,2 21,4 7 4 22 12 N 1017,8 20 0 0,0
19.07.2019 00:00:00 16,6 9,3 - - - 11 6 18 10 NNW 1017,3 20 - 0,0
18.07.2019 23:00:00 17,2 9,4 15,7 24,2 21,4 10 6 17 9 NNW 1016,9 20 0 0,0
18.07.2019 22:00:00 18,1 9,2 16,9 24,2 21,4 11 6 18 10 NNW 1016,4 20 2 0,0
18.07.2019 21:00:00 20,1 9,3 20,5 24,1 21,4 14 8 41 22 NW 1015,4 20 60 0,0
18.07.2019 20:00:00 21,7 9,2 25,0 24,0 21,4 17 9 36 19 NW 1014,5 20 60 0,0
18.07.2019 19:00:00 22,6 8,7 24,9 23,9 21,4 22 12 38 20 WNW 1013,9 20 54 0,0
18.07.2019 18:00:00 23,3 8,6 28,2 23,8 21,4 25 14 38 21 NW 1013,8 20 60 0,0
18.07.2019 17:00:00 23,4 8,3 30,1 23,6 21,4 29 15 39 21 NW 1014,0 20 60 0,0
18.07.2019 16:00:00 23,5 8,4 30,3 23,5 21,4 23 12 36 19 WNW 1013,9 20 60 0,0
18.07.2019 15:00:00 22,3 8,0 28,9 23,4 21,4 19 10 31 17 W 1014,5 20 60 0,0
18.07.2019 14:00:00 21,5 9,1 26,5 23,3 21,4 19 10 32 18 NW 1014,9 20 60 0,0
18.07.2019 13:00:00 20,4 9,9 26,0 23,3 21,4 17 9 31 17 W 1015,5 20 60 0,0
18.07.2019 12:00:00 19,8 9,4 26,7 23,3 21,4 16 9 30 16 WNW 1015,9 20 60 0,0
18.07.2019 11:00:00 19,3 9,8 22,3 23,4 21,4 16 9 28 15 NNW 1016,1 20 55 0,0
18.07.2019 10:00:00 17,9 11,0 17,9 23,5 21,4 10 5 20 11 WSW 1016,2 20 55 0,0
18.07.2019 09:00:00 16,2 10,5 17,2 23,6 21,4 14 7 18 10 WSW 1016,4 20 32 0,0
18.07.2019 08:00:00 15,6 10,4 14,7 23,6 21,3 2 1 13 7 S 1016,1 20 32 0,0
18.07.2019 07:00:00 15,1 9,7 14,1 23,8 21,3 10 6 18 10 NNW 1016,0 20 0 0,0
18.07.2019 06:00:00 15,6 9,9 14,4 23,9 21,4 3 2 35 19 SSW 1015,3 20 0 0,0
18.07.2019 05:00:00 16,4 10,0 16,1 23,9 21,3 29 16 46 25 NNW 1014,4 20 0 0,0
18.07.2019 04:00:00 17,0 10,4 16,5 24,0 21,3 36 19 49 26 NNW 1014,2 20 0 0,0
18.07.2019 03:00:00 17,9 10,3 16,9 24,1 21,4 18 10 49 27 NNW 1014,2 20 0 0,0
18.07.2019 02:00:00 18,5 10,6 18,0 24,1 21,3 37 20 51 28 NNW 1013,7 20 0 0,0
18.07.2019 01:00:00 19,5 9,7 18,8 24,2 21,4 27 15 46 25 NW 1013,5 20 0 0,0
18.07.2019 00:00:00 21,1 8,4 19,8 24,1 21,3 24 13 46 25 NW 1013,3 20 0 0,0
17.07.2019 23:00:00 21,2 8,1 19,9 24,1 21,3 17 9 36 20 NW 1013,3 20 0 0,0
17.07.2019 22:00:00 22,3 7,7 20,9 24,1 21,3 21 11 35 19 NW 1012,2 20 0 0,0
17.07.2019 21:00:00 23,8 7,4 23,3 24,0 21,3 14 8 40 21 NW 1011,4 20 54 0,0
17.07.2019 20:00:00 25,6 7,2 28,3 23,9 21,3 27 15 41 22 NW 1010,7 20 60 0,0
17.07.2019 19:00:00 26,5 7,5 29,5 23,8 21,3 25 14 41 22 NW 1010,2 20 58 0,0
17.07.2019 18:00:00 27,1 9,4 31,2 23,6 21,3 21 12 44 24 NW 1010,6 18 60 0,0
17.07.2019 17:00:00 27,1 8,5 29,3 23,5 21,3 20 11 48 26 W 1010,9 20 39 0,0
17.07.2019 16:00:00 26,4 7,4 31,5 23,3 21,4 27 15 46 25 NW 1011,4 20 47 0,0
17.07.2019 15:00:00 25,6 8,1 32,6 23,2 21,3 28 15 45 24 NNW 1011,5 20 54 0,0
17.07.2019 14:00:00 26,5 8,0 34,3 23,1 21,3 14 8 31 17 NW 1011,6 20 60 0,0
17.07.2019 13:00:00 25,9 10,5 29,5 23,1 21,3 16 9 33 18 NW 1012,2 20 60 0,0
17.07.2019 12:00:00 23,7 10,4 29,0 23,1 21,3 13 7 25 14 WSW 1012,9 20 60 0,0
17.07.2019 11:00:00 22,1 10,6 27,6 23,2 21,3 9 5 15 8 SW 1013,4 20 60 0,0
17.07.2019 10:00:00 20,4 9,9 24,9 23,2 21,3 4 2 9 5 S 1014,1 20 60 0,0
17.07.2019 09:00:00 18,3 10,1 22,1 23,4 21,3 4 2 8 4 ESE 1014,9 20 60 0,0
17.07.2019 08:00:00 17,2 8,6 16,3 23,5 21,3 2 1 5 3 SE 1015,2 20 60 0,0
17.07.2019 07:00:00 15,7 8,0 12,3 23,6 21,3 5 3 8 5 NNE 1015,1 20 16 0,0
17.07.2019 06:00:00 15,6 7,6 13,1 23,7 21,3 3 2 8 4 NNE 1015,2 20 0 0,0
17.07.2019 05:00:00 16,3 7,0 14,6 23,8 21,3 5 3 8 4 ENE 1014,8 20 0 0,0
17.07.2019 04:00:00 17,4 6,9 14,3 23,9 21,3 5 3 9 5 N 1014,6 20 0 0,0
17.07.2019 03:00:00 18,5 6,0 15,9 24,0 21,3 2 1 6 3 SSE 1014,5 20 0 0,0
17.07.2019 02:00:00 18,6 6,4 16,5 24,0 21,3 3 2 6 3 SW 1015,0 20 0 0,0
17.07.2019 01:00:00 20,0 5,6 18,1 24,1 21,3 0 0 9 5 N 1014,8 20 0 0,0
17.07.2019 00:00:00 20,7 5,5 18,6 24,1 21,3 0 0 19 11 N 1014,6 20 0 0,0
16.07.2019 23:00:00 20,6 5,4 18,8 24,1 21,3 9 5 21 12 WNW 1014,6 20 0 0,0
16.07.2019 22:00:00 21,5 4,1 20,2 24,0 21,3 16 8 23 12 NW 1013,9 20 3 0,0
16.07.2019 21:00:00 23,5 5,8 23,6 23,9 21,3 16 9 26 14 WNW 1013,1 20 60 0,0
16.07.2019 20:00:00 25,6 7,7 28,2 23,8 21,3 18 10 28 15 WNW 1012,4 20 57 0,0
16.07.2019 19:00:00 26,8 6,8 30,8 23,6 21,3 16 9 32 17 W 1012,1 20 60 0,0
16.07.2019 18:00:00 27,2 7,1 30,2 23,4 21,3 17 9 29 16 WNW 1012,2 20 57 0,0
16.07.2019 17:00:00 25,7 7,8 27,9 23,2 21,3 20 11 36 20 W 1012,8 20 40 0,0
16.07.2019 16:00:00 27,3 7,2 35,4 23,0 21,3 16 8 32 18 WNW 1012,5 20 60 0,0
16.07.2019 15:00:00 26,6 6,6 30,1 22,9 21,3 12 6 29 16 NNW 1012,9 20 58 0,0
16.07.2019 14:00:00 25,5 8,0 32,9 22,8 21,3 11 6 23 13 WSW 1013,3 20 60 0,0
16.07.2019 13:00:00 24,9 8,0 32,5 22,7 21,3 14 8 30 16 WNW 1013,5 20 60 0,0
16.07.2019 12:00:00 23,6 7,2 32,1 22,8 21,3 9 5 32 18 N 1014,1 20 60 0,0
16.07.2019 11:00:00 22,5 7,5 29,7 22,8 21,3 19 11 37 20 N 1014,2 20 60 0,0
16.07.2019 10:00:00 20,6 8,6 24,6 22,9 21,3 13 7 24 13 NE 1015,0 20 60 0,0
16.07.2019 09:00:00 18,2 8,5 20,9 23,0 21,3 16 8 24 13 NNE 1015,8 20 60 0,0
16.07.2019 08:00:00 16,8 7,7 16,7 23,1 21,3 16 8 22 12 NNE 1016,2 20 60 0,0
16.07.2019 07:00:00 15,6 7,4 13,1 23,2 21,3 19 10 23 12 N 1016,2 20 17 0,0
16.07.2019 06:00:00 14,3 7,1 12,8 23,3 21,3 18 10 24 13 N 1016,4 20 0 0,0
16.07.2019 05:00:00 15,3 7,3 13,9 23,4 21,3 21 11 25 13 N 1015,9 20 0 0,0
16.07.2019 04:00:00 15,2 7,5 14,1 23,5 21,3 19 10 24 13 N 1016,2 20 0 0,0
16.07.2019 03:00:00 16,0 7,5 14,6 23,6 21,3 18 10 24 13 N 1016,1 20 0 0,0
16.07.2019 02:00:00 16,5 7,2 14,8 23,7 21,3 12 7 29 16 N 1016,1 20 0 0,0
16.07.2019 01:00:00 17,0 7,3 15,8 23,7 21,3 17 9 35 19 N 1015,9 20 0 0,0
16.07.2019 00:00:00 17,6 7,3 16,9 23,8 21,3 25 14 37 20 N 1015,3 20 0 0,0
15.07.2019 23:00:00 18,0 7,4 16,9 23,8 21,3 16 9 40 21 NNW 1015,3 20 0 0,0
15.07.2019 22:00:00 19,2 7,3 18,6 23,8 21,3 32 17 41 22 NNW 1014,1 20 4 0,0
15.07.2019 21:00:00 20,9 7,1 21,4 23,7 21,3 25 14 46 25 N 1013,1 20 60 0,0
15.07.2019 20:00:00 22,4 6,6 25,5 23,6 21,3 30 16 51 27 N 1012,0 20 60 0,0
15.07.2019 19:00:00 23,2 7,3 28,4 23,6 21,3 31 17 51 28 NNW 1011,6 20 60 0,0
15.07.2019 18:00:00 23,5 6,7 29,9 23,5 21,3 37 20 67 36 N 1010,9 20 60 0,0
15.07.2019 17:00:00 23,5 6,3 30,2 23,3 21,3 47 26 69 38 N 1010,7 20 60 0,0
15.07.2019 16:00:00 23,9 7,1 29,0 23,3 21,3 41 22 72 39 NNW 1010,4 20 57 0,0
15.07.2019 15:00:00 22,5 7,8 28,7 23,2 21,3 39 21 61 33 N 1010,5 20 58 0,0
15.07.2019 14:00:00 22,1 7,9 29,3 23,2 21,3 38 21 66 36 NNW 1010,5 20 60 0,0
15.07.2019 13:00:00 - - - - - - - - - - - - - -
15.07.2019 12:00:00 - - - - - - - - - - - - - -
15.07.2019 11:00:00 - - - - - - - - - - - - - -
15.07.2019 10:00:00 - - - - - - - - - - - - - -
15.07.2019 09:00:00 - - - - - - - - - - - - - -
15.07.2019 08:00:00 - - - - - - - - - - - - - -
15.07.2019 07:00:00 - - - - - - - - - - - - - -
15.07.2019 06:00:00 - - - - - - - - - - - - - -
15.07.2019 05:00:00 - - - - - - - - - - - - - -
15.07.2019 04:00:00 - - - - - - - - - - - - - -
15.07.2019 03:00:00 - - - - - - - - - - - - - -
15.07.2019 02:00:00 - - - - - - - - - - - - - -
15.07.2019 01:00:00 - - - - - - - - - - - - - -
15.07.2019 00:00:00 - - - - - - - - - - - - - -
14.07.2019 23:00:00 - - - - - - - - - - - - - -
14.07.2019 22:00:00 - - - - - - - - - - - - - -
14.07.2019 21:00:00 - - - - - - - - - - - - - -
14.07.2019 20:00:00 - - - - - - - - - - - - - -
14.07.2019 19:00:00 - - - - - - - - - - - - - -
14.07.2019 18:00:00 - - - - - - - - - - - - - -
14.07.2019 17:00:00 - - - - - - - - - - - - - -
14.07.2019 16:00:00 - - - - - - - - - - - - - -
14.07.2019 15:00:00 - - - - - - - - - - - - - -
14.07.2019 14:00:00 - - - - - - - - - - - - - -

tt = Température de l'air
td = dewpoint
tt 5cm = Température de l'air 5cm
tt -20cm = Température de l'air -20cm
tt -100cm = Température de l'air -100cm
ff = Vitesse du vent
fx = gusts
dd = Direction du vent
ppp = reduced air pressure
vv = visibility
sd = Ensoleillement
rr = Quantités de précipitations

stations d'obs. à proximité